SCP
0 0 0 0 0 0 0 -0 -0 0 0 0 0 -0 0 0 0 0 0 0 -0 0 0 0 -0 -0 -0 -0 -0 -0 -0 -0 -0 -0 -0 -0 -0 -0 -0 -0 0 0 0 -0 -0 -0 -0 -0 -0
0 0 0 0 0 0 0 0 -0 0 0 -0 0 0 0 0 0 0 0 0 -0 -0 0 0 0 -0 -0 -0 -0 -0 -0 -0 -0 -0 -0 -0 -0 -0 -0 -0 0 -0 -0 -0 -0 -0 -0 -0 -0
0 0 0 0 0 0 0 0 0 0 0 0 0 0 -0 -0 0 -0 0 -0 -0 0 0 0 0 -0 -0 -0 -0 0 -0 -0 -0 -0 -0 -0 -0 -0 -0 -0 0 0 -0 0 0 0 0 -0 -0
0 0 0 0 0 0 0 0 0 0 0 0 0 -0 0 0 -0 0 -0 -0 -0 -0 0 0 0 -0 -0 -0 -0 -0 -0 -0 -0 -0 -0 -0 -0 -0 -0 -0 -0 0 -0 0 0 0 0 0 0
0 0 0 0 0 0 0 0 0 0 0 0 -0 0 0 0 0 -0 -0 -0 0 0 0 -0 -0 -0 0 0 0 -0 -0 -0 0 -0 -0 -0 -0 -0 -0 -0 -0 0 0 -0 0 0 -0 -0 0
0 0 0 0 0 0 0 0 0 0 0 0 0 -0 0 0 -0 -0 0 0 0 0 0 0 0 -0 0 0 0 0 0 -0 0 0 0 -0 -0 -0 -0 -0 -0 -0 0 0 0 0 0 0 0
0 0 0 0 0 0 0 0 0 0 0 -0 0 0 0 0 -0 -0 -0 0 0 0 0 0 0 0 0 0 0 0 0 0 0 0 0 0 0 0 0 0 0 0 0 0 0 0 0 0 0
0 0 0 0 0 0 0 0 0 0 0 0 0 0 -0 0 0 0 -0 -0 0 0 0 0 0 0 0 0 0 0 0 0 0 0 0 0 0 0 0 0 -0 0 0 0 0 0 0 -0 -0
0 0 0 0 0 0 0 0 0 0 0 0 0 0 0 -0 0 0 0 0 0 0 0 0 0 0 0 0 0 0 0 0 0 0 0 0 0 0 0 0 0 0 0 0 0 0 0 0 -0
0 0 0 0 0 0 0 0 0 0 0 0 0 0 0 0 0 0 0 0 0 -0 -0 0 0 0 0 0 0 0 0 0 0 0 0 0 0 0 0 0 -0 -0 -0 0 0 0 0 0 0
0 0 0 0 0 0 0 0 0 0 0 0 0 0 0 0 0 0 0 0 0 0 0 0 0 0 0 0 0 0 0 0 0 0 0 0 0 0 0 0 0 0 0 0 0 0 0 0 0
0 0 0 0 0 0 0 0 0 0 0 0 0 0 0 0 0 0 0 0 0 0 0 0 0 0 0 0 0 0 0 0 0 0 0 0 0 0 0 0 0 0 0 0 0 0 0 0 0
0 0 0 0 0 0 0 0 0 0 0 0 0 0 0 0 0 0 0 0 0 0 0 0 0 0 0 0 0 0 0 0 0 0 0 0 0 0 0 0 0 0 0 0 0 0 0 0 0
0 0 0 0 0 0 0 0 0 0 0 0 0 0 0 0 0 0 0 0 0 0 0 0 0 0 0 0 0 0 0 0 0 0 0 0 0 0 0 0 0 0 0 0 0 0 0 0 0
0 0 0 0 0 0 0 0 0 0 0 0 0 0 0 0 0 0 0 0 0 0 0 0 0 0 0 0 0 0 0 0 0 0 0 0 0 0 0 0 0 0 0 0 0 0 0 0 0
0 0 0 0 0 0 0 0 0 0 0 0 0 0 0 0 0 0 0 0 0 0 0 0 0 0 0 0 0 0 0 0 0 0 0 0 0 0 0 0 0 0 0 0 0 0 0 0 0
0 0 0 0 0 0 0 0 0 0 0 0 0 0 0 0 0 0 0 0 0 0 0 0 0 0 0 0 0 0 0 0 0 0 0 0 0 0 0 0 0 0 0 0 0 0 0 0 0
0 0 0 0 0 0 0 0 0 0 0 0 0 0 0 0 0 0 0 0 0 0 0 0 0 0 0 0 0 0 0 0 0 0 0 0 0 0 0 0 0 0 0 0 0 0 0 0 0
0 0 0 0 0 0 0 0 0 0 0 0 0 0 0 0 0 0 0 0 0 0 0 0 0 0 0 0 0 0 0 0 0 0 0 0 0 0 0 0 0 0 0 0 0 0 0 0 0
0 0 0 0 0 0 0 0 0 0 0 0 0 0 0 0 0 0 0 0 0 0 0 0 0 0 0 0 0 0 0 0 0 0 0 0 0 0 0 0 0 0 0 0 0 0 0 0 0
0 0 0 0 0 0 0 0 0 0 0 0 0 0 0 0 0 0 0 0 0 0 0 0 0 0 0 0 0 0 0 0 0 0 0 0 0 0 0 0 0 0 0 0 0 0 0 0 0
0 0 0 0 0 0 0 0 0 0 0 0 0 0 0 0 0 0 0 0 0 0 0 0 0 0 0 0 0 0 0 0 0 0 0 0 0 0 0 0 0 0 0 0 0 0 0 0 0
0 0 0 0 0 0 0 0 0 0 0 0 0 0 0 0 0 0 0 0 0 0 0 0 0 0 0 0 0 0 0 0 0 0 0 0 0 0 0 0 0 0 0 0 0 0 0 0 0
0 0 0 0 0 0 0 0 -0 0 0 0 0 0 0 0 0 0 0 0 0 0 0 0 0 0 0 0 0 0 0 0 0 0 0 0 0 0 0 0 0 0 0 0 0 0 0 0 0
0 0 0 0 0 0 0 0 0 0 0 0 0 0 0 0 0 0 0 0 0 0 0 0 0 0 0 0 0 0 0 0 0 0 0 0 0 0 0 0 0 0 0 0 0 0 0 0 0
0 0 0 0 0 0 0 0 0 0 0 0 0 0 0 0 0 0 0 0 0 0 0 0 0 0 0 0 0 0 0 0 0 0 0 0 0 0 0 0 0 0 0 0 0 0 0 0 0
0 0 0 0 0 0 0 0 0 0 0 0 0 0 0 0 0 0 0 0 0 0 0 0 0 0 0 0 0 0 0 0 0 0 0 0 0 0 0 0 0 0 0 0 0 0 0 0 0
0 0 0 0 0 0 0 0 0 0 0 0 0 0 0 0 0 0 0 0 0 0 0 0 0 0 0 0 0 0 0 0 0 0 0 0 0 0 0 0 0 0 0 0 0 0 0 0 0
0 0 0 0 0 0 0 0 0 0 0 0 0 0 0 0 0 0 0 0 0 0 0 0 0 0 0 0 0 0 0 0 0 0 0 0 0 0 0 0 0 0 0 0 0 0 0 0 0
0 0 0 0 0 0 0 0 0 0 0 0 0 0 0 0 0 0 0 0 0 0 0 0 0 0 0 0 0 0 0 0 0 0 0 0 0 0 0 0 0 0 0 0 0 0 0 0 0
Wind_Speed_500mb
35 29 4 15 6 8 4 10 5 8 6 5 8 8 14 10 8 7 28 33 35 36 40 39 37 32 30 30 29 28 29 26 23 20 19 17 15 12 12 14 17 17 18 18 21 25 27 28 27
36 21 13 7 8 3 8 6 13 9 14 33 25 13 7 3 8 15 42 30 27 37 41 41 38 34 31 30 31 29 27 24 22 19 16 14 12 10 14 22 22 13 12 15 18 25 25 25 22
30 10 7 8 7 8 9 8 13 6 32 10 9 7 7 6 14 24 22 35 33 40 41 43 40 35 32 29 29 31 27 23 22 18 15 13 13 14 15 13 18 24 10 11 17 20 20 19 16
21 2 5 7 9 10 11 11 21 20 10 9 18 9 6 8 10 32 32 34 35 40 42 42 41 35 31 28 25 27 28 28 24 20 16 13 12 17 18 11 17 19 17 13 15 15 15 13 11
15 3 6 3 6 7 7 15 35 11 14 15 18 7 2 12 19 25 32 33 36 43 43 42 39 35 30 27 25 24 24 26 27 24 20 17 15 12 18 12 15 14 15 9 16 14 14 13 12
5 5 6 5 8 8 4 24 13 12 15 22 13 18 9 24 18 25 30 31 32 41 44 43 40 35 30 27 26 26 24 22 22 26 25 23 21 16 18 18 13 13 15 13 18 18 17 15 13
8 7 7 6 7 9 6 23 15 20 13 15 24 13 8 32 25 24 33 31 31 38 41 44 42 37 31 27 26 26 24 24 20 19 22 25 23 20 21 24 18 16 16 14 12 11 12 12 10
3 7 8 6 7 8 5 20 14 26 18 17 29 12 10 39 35 31 36 31 32 39 39 42 43 39 34 30 27 26 25 25 23 19 16 21 22 23 22 24 22 18 14 10 12 12 13 12 10
6 6 7 10 12 8 2 4 6 14 18 16 24 12 12 44 43 45 44 39 38 40 39 41 45 44 37 33 30 28 26 24 24 22 20 20 20 21 22 22 22 21 19 17 13 12 12 14 15
9 8 18 12 10 7 3 3 2 7 15 14 30 26 21 50 53 58 58 55 50 48 45 41 45 47 42 38 35 31 30 29 28 24 24 23 20 20 19 19 21 22 23 23 21 17 17 18 19
13 12 10 10 10 7 2 3 7 3 8 22 46 42 41 60 58 59 58 55 51 47 45 43 43 48 46 42 38 36 34 32 31 29 26 25 24 25 25 24 23 24 24 24 22 22 22 22 23
8 18 14 11 15 8 6 6 5 11 12 13 27 42 54 65 64 61 60 57 51 46 42 40 36 47 49 45 43 39 39 37 36 33 31 29 28 28 29 28 26 25 22 21 22 23 26 27 26
8 9 24 24 15 12 9 14 10 20 26 17 20 47 60 64 61 57 53 50 48 45 40 41 39 41 46 47 44 43 43 42 38 37 36 35 34 32 30 30 29 27 27 27 27 29 29 31 30
11 9 5 15 16 10 11 7 8 20 26 27 25 54 65 63 61 59 59 55 55 48 41 39 41 40 41 42 40 40 39 38 39 41 41 40 39 38 37 34 33 31 31 30 30 31 33 34 36
3 5 5 12 12 10 11 8 20 54 12 12 27 55 68 68 66 62 54 56 55 55 47 43 39 39 42 40 40 38 34 33 37 39 40 42 42 40 41 40 38 36 34 35 36 36 38 39 38
6 5 6 5 18 10 20 17 15 32 39 47 24 39 61 65 65 59 59 57 57 57 56 47 45 42 41 41 40 43 41 39 39 38 35 39 41 41 43 44 42 36 38 40 42 41 43 44 43
6 7 8 12 23 8 12 13 10 11 23 32 36 39 40 63 64 62 59 59 57 57 55 55 50 45 42 41 40 42 43 45 44 43 41 39 39 39 42 42 43 38 39 43 45 45 46 46 44
12 9 9 10 4 7 11 16 13 11 11 13 18 22 37 50 63 61 59 57 57 57 59 56 53 49 44 44 44 41 44 47 48 48 45 44 44 43 43 44 45 43 46 48 48 48 47 49 49
9 8 9 7 4 7 14 15 29 32 22 34 41 41 41 49 59 59 61 60 61 60 62 63 56 53 50 53 53 52 50 48 49 48 48 48 51 50 48 47 48 50 50 50 49 52 54 56 52
3 6 6 8 5 7 8 17 25 10 21 45 55 56 48 49 53 59 61 60 66 70 68 68 66 58 51 53 56 55 49 52 49 50 51 51 51 52 53 49 44 49 50 53 53 56 58 58 58
9 10 5 4 8 3 9 14 15 11 31 53 61 67 68 65 63 57 61 67 62 64 69 78 77 70 66 58 52 52 54 57 56 57 56 52 50 51 53 52 48 45 44 49 49 50 48 56 59
9 14 12 5 4 8 3 11 11 9 14 12 50 61 73 77 75 72 68 68 72 68 55 69 81 83 75 66 65 62 59 58 58 56 51 50 51 53 51 51 50 49 47 49 47 46 47 43 54
11 12 15 10 7 5 4 5 14 6 9 20 29 56 60 58 50 58 73 83 75 66 58 56 74 84 79 73 69 69 71 67 64 57 52 52 52 48 47 48 48 49 50 51 50 48 49 49 52
5 11 12 9 6 7 13 13 9 8 13 12 15 20 26 26 33 40 47 54 67 64 54 34 41 60 67 67 68 71 71 63 56 50 51 47 43 44 47 48 50 51 54 54 53 52 50 51 54
6 11 5 5 3 12 2 9 12 15 18 8 17 39 27 21 36 23 17 25 35 51 43 36 36 38 48 58 58 60 58 57 58 60 60 57 53 49 47 48 49 50 51 57 55 54 51 51 56
26 18 10 14 9 7 3 13 11 12 22 27 37 43 46 46 22 9 6 9 12 19 27 32 34 36 35 35 39 45 48 47 48 50 54 55 55 54 52 53 54 56 56 56 53 51 51 53 57
12 20 9 9 5 6 8 12 16 12 15 25 34 40 31 20 11 8 14 18 17 18 19 20 20 20 21 25 29 33 37 39 40 40 40 40 42 45 48 51 54 54 54 53 50 51 53 54 55
16 15 7 4 6 7 6 6 8 8 15 20 28 42 50 37 18 15 19 22 23 20 17 16 14 12 12 13 17 20 23 26 28 31 34 37 40 41 43 43 43 41 41 42 45 48 49 51 55
9 12 9 8 10 9 3 8 8 14 12 15 17 43 51 45 30 18 21 24 25 23 19 14 10 8 9 10 12 15 18 20 22 25 28 32 35 39 35 40 42 44 46 49 52 55 55 59 60
24 15 26 16 8 4 5 7 4 15 12 18 28 39 46 44 38 29 27 26 24 20 15 11 8 5 5 5 7 10 12 14 17 20 22 24 26 28 29 32 35 37 38 39 41 43 44 46 47
Wind_Direction_500mb
343 342 284 162 74 67 235 241 174 172 154 173 136 171 159 118 163 206 149 157 162 172 168 165 165 164 162 162 161 155 158 158 155 155 154 151 152 153 142 141 134 137 115 116 117 119 124 128 131
341 336 159 139 101 133 262 237 196 198 146 120 100 89 72 146 161 152 155 163 164 171 168 166 166 165 163 163 164 161 167 167 166 167 167 166 161 153 139 133 121 108 123 114 115 120 126 133 134
337 339 196 109 112 179 216 209 175 170 152 143 107 107 136 180 185 177 170 162 165 173 170 168 170 168 165 166 169 171 174 175 172 171 171 171 166 163 168 165 163 136 146 130 122 124 129 130 130
334 270 59 104 201 242 207 187 167 147 176 163 141 103 143 179 192 168 169 169 170 177 175 174 174 173 172 174 177 182 181 183 189 192 201 200 188 184 198 190 153 150 160 154 139 136 126 126 124
328 25 59 89 257 262 240 186 161 153 165 154 158 187 170 176 165 173 167 172 179 179 180 181 181 179 180 182 183 187 193 197 195 198 204 216 218 192 204 195 171 172 163 109 143 146 144 145 155
347 73 59 228 255 277 201 166 169 159 181 155 132 147 156 172 180 179 180 174 180 184 183 186 185 186 187 189 189 192 193 194 193 195 199 204 214 206 195 188 190 176 192 180 163 165 167 171 172
126 92 199 193 262 304 162 181 177 177 173 205 164 135 206 190 192 194 183 179 182 191 192 190 192 191 193 195 196 197 197 196 196 195 196 198 210 218 212 199 199 204 194 189 181 176 186 189 193
213 98 158 222 207 244 338 181 204 185 192 199 170 182 213 188 183 187 184 187 189 188 195 199 199 200 200 199 202 204 203 205 204 206 201 203 206 210 209 205 211 214 218 209 206 205 207 219 222
188 74 209 211 165 236 342 130 156 208 162 176 198 208 211 185 180 184 186 193 196 197 199 203 205 205 207 206 206 208 209 211 212 213 216 214 214 217 212 214 219 226 233 242 237 227 230 235 239
145 157 218 206 188 207 306 357 276 183 160 219 200 205 187 185 185 189 194 196 201 203 203 206 211 211 212 211 212 214 214 213 216 221 223 226 225 224 226 229 230 228 233 238 244 249 245 246 248
176 202 196 219 202 220 264 278 316 210 209 208 205 197 183 183 189 198 203 209 207 207 210 212 214 214 218 219 218 219 221 223 223 225 228 230 233 232 232 235 239 238 238 239 244 250 259 262 260
166 231 180 185 191 180 221 273 289 226 226 228 228 208 182 186 194 202 208 211 210 211 216 218 221 219 222 225 226 226 228 227 228 231 234 236 238 238 240 242 246 247 242 247 258 263 267 268 271
214 213 208 225 208 213 206 241 248 261 242 252 224 199 190 194 200 207 215 216 214 215 216 220 223 222 223 227 228 230 231 232 234 236 238 240 243 245 248 249 248 248 247 254 264 271 272 272 272
235 197 179 210 213 216 183 225 196 245 250 247 225 204 200 203 205 207 213 217 218 219 218 217 221 227 228 231 235 234 233 232 236 239 241 242 244 245 247 249 248 253 256 263 270 275 272 272 271
169 177 330 227 211 227 183 252 220 238 220 203 215 209 207 209 209 214 217 220 222 223 223 220 222 227 233 239 240 243 248 247 246 241 239 242 244 245 248 250 252 255 260 265 268 269 272 274 277
129 58 177 247 169 226 158 257 247 249 233 234 229 220 216 215 218 223 222 225 227 228 230 227 226 229 234 239 240 243 247 251 256 260 249 244 243 245 247 251 254 258 262 266 268 270 273 275 277
338 206 198 305 205 148 176 249 263 211 208 235 243 233 228 226 226 226 227 230 231 233 233 232 229 230 233 236 239 241 244 250 255 259 264 261 258 252 250 252 254 256 260 263 267 269 272 276 280
189 203 231 208 222 190 206 257 252 189 187 225 260 249 237 231 227 228 230 233 234 234 236 233 233 231 230 237 239 241 243 247 251 254 259 265 266 267 260 261 262 259 257 259 263 268 273 277 282
161 183 198 224 255 167 226 235 254 250 255 269 266 256 252 243 233 232 233 234 235 234 234 234 232 236 234 234 234 237 241 248 252 255 259 265 266 265 269 268 266 264 263 267 272 272 273 277 280
96 157 228 286 350 173 284 261 262 219 251 253 259 266 256 252 245 236 233 232 235 237 236 236 236 234 237 243 248 249 253 257 262 265 264 271 269 267 267 270 278 268 265 266 268 270 273 275 278
203 184 190 215 350 345 337 288 250 240 236 252 252 254 259 256 251 244 234 233 233 238 240 240 240 239 237 238 242 246 250 255 257 261 265 269 269 268 264 267 271 279 278 270 272 273 275 274 277
212 182 181 243 100 232 26 281 279 253 251 234 255 253 254 255 250 247 239 235 236 241 247 242 242 240 240 241 241 244 253 262 266 274 280 276 277 276 271 270 270 273 277 278 280 282 282 275 273
216 152 182 171 171 38 233 332 275 275 268 256 254 259 263 264 260 257 247 241 238 240 246 251 240 240 240 243 246 250 253 259 265 272 273 275 277 274 271 272 271 272 275 278 278 279 277 273 271
147 84 55 53 85 278 188 176 253 215 210 236 270 274 286 276 280 274 254 246 241 236 235 250 242 238 241 245 247 251 252 258 267 267 272 277 278 272 272 272 270 270 273 274 276 277 273 276 276
164 138 44 18 1 235 210 193 273 269 264 254 276 288 284 283 311 271 235 233 234 227 232 234 235 237 238 240 242 244 249 253 256 260 264 266 269 269 271 272 272 271 272 276 274 270 271 278 276
187 182 157 182 195 228 158 229 251 248 288 291 282 290 285 293 306 300 189 190 195 206 216 225 227 226 226 231 237 242 247 250 254 260 262 262 264 266 266 268 270 272 272 272 272 265 267 272 272
173 214 163 111 67 64 213 290 294 315 33 24 19 21 7 17 49 86 117 127 137 159 173 187 201 214 225 235 242 246 250 254 256 256 258 260 262 262 264 266 268 269 268 268 269 266 264 267 271
186 154 187 44 153 234 264 269 248 51 46 37 22 11 14 23 40 84 113 140 154 164 171 180 192 202 215 229 238 244 246 249 252 255 258 260 262 263 265 267 268 267 264 262 259 257 261 264 267
156 187 187 150 165 172 159 254 249 99 99 60 2 24 29 36 51 75 101 112 120 126 132 145 170 201 223 231 235 243 249 253 258 262 263 263 264 263 262 260 261 261 262 263 265 267 267 267 268
219 196 205 206 228 224 131 275 175 118 92 58 38 41 44 52 63 80 91 101 109 113 120 131 148 184 200 227 245 249 254 258 260 263 265 266 266 267 264 261 259 259 259 260 261 262 265 268 270
Wind_Speed_850mb
35 29 4 15 6 8 4 10 5 8 6 5 8 8 14 10 8 7 28 33 35 36 40 39 37 32 30 30 29 28 29 26 23 20 19 17 15 12 12 14 17 17 18 18 21 25 27 28 27
36 21 13 7 8 3 8 6 13 9 14 33 25 13 7 3 8 15 42 30 27 37 41 41 38 34 31 30 31 29 27 24 22 19 16 14 12 10 14 22 22 13 12 15 18 25 25 25 22
30 10 7 8 7 8 9 8 13 6 32 10 9 7 7 6 14 24 22 35 33 40 41 43 40 35 32 29 29 31 27 23 22 18 15 13 13 14 15 13 18 24 10 11 17 20 20 19 16
21 2 5 7 9 10 11 11 21 20 10 9 18 9 6 8 10 32 32 34 35 40 42 42 41 35 31 28 25 27 28 28 24 20 16 13 12 17 18 11 17 19 17 13 15 15 15 13 11
15 3 6 3 6 7 7 15 35 11 14 15 18 7 2 12 19 25 32 33 36 43 43 42 39 35 30 27 25 24 24 26 27 24 20 17 15 12 18 12 15 14 15 9 16 14 14 13 12
5 5 6 5 8 8 4 24 13 12 15 22 13 18 9 24 18 25 30 31 32 41 44 43 40 35 30 27 26 26 24 22 22 26 25 23 21 16 18 18 13 13 15 13 18 18 17 15 13
8 7 7 6 7 9 6 23 15 20 13 15 24 13 8 32 25 24 33 31 31 38 41 44 42 37 31 27 26 26 24 24 20 19 22 25 23 20 21 24 18 16 16 14 12 11 12 12 10
3 7 8 6 7 8 5 20 14 26 18 17 29 12 10 39 35 31 36 31 32 39 39 42 43 39 34 30 27 26 25 25 23 19 16 21 22 23 22 24 22 18 14 10 12 12 13 12 10
6 6 7 10 12 8 2 4 6 14 18 16 24 12 12 44 43 45 44 39 38 40 39 41 45 44 37 33 30 28 26 24 24 22 20 20 20 21 22 22 22 21 19 17 13 12 12 14 15
9 8 18 12 10 7 3 3 2 7 15 14 30 26 21 50 53 58 58 55 50 48 45 41 45 47 42 38 35 31 30 29 28 24 24 23 20 20 19 19 21 22 23 23 21 17 17 18 19
13 12 10 10 10 7 2 3 7 3 8 22 46 42 41 60 58 59 58 55 51 47 45 43 43 48 46 42 38 36 34 32 31 29 26 25 24 25 25 24 23 24 24 24 22 22 22 22 23
8 18 14 11 15 8 6 6 5 11 12 13 27 42 54 65 64 61 60 57 51 46 42 40 36 47 49 45 43 39 39 37 36 33 31 29 28 28 29 28 26 25 22 21 22 23 26 27 26
8 9 24 24 15 12 9 14 10 20 26 17 20 47 60 64 61 57 53 50 48 45 40 41 39 41 46 47 44 43 43 42 38 37 36 35 34 32 30 30 29 27 27 27 27 29 29 31 30
11 9 5 15 16 10 11 7 8 20 26 27 25 54 65 63 61 59 59 55 55 48 41 39 41 40 41 42 40 40 39 38 39 41 41 40 39 38 37 34 33 31 31 30 30 31 33 34 36
3 5 5 12 12 10 11 8 20 54 12 12 27 55 68 68 66 62 54 56 55 55 47 43 39 39 42 40 40 38 34 33 37 39 40 42 42 40 41 40 38 36 34 35 36 36 38 39 38
6 5 6 5 18 10 20 17 15 32 39 47 24 39 61 65 65 59 59 57 57 57 56 47 45 42 41 41 40 43 41 39 39 38 35 39 41 41 43 44 42 36 38 40 42 41 43 44 43
6 7 8 12 23 8 12 13 10 11 23 32 36 39 40 63 64 62 59 59 57 57 55 55 50 45 42 41 40 42 43 45 44 43 41 39 39 39 42 42 43 38 39 43 45 45 46 46 44
12 9 9 10 4 7 11 16 13 11 11 13 18 22 37 50 63 61 59 57 57 57 59 56 53 49 44 44 44 41 44 47 48 48 45 44 44 43 43 44 45 43 46 48 48 48 47 49 49
9 8 9 7 4 7 14 15 29 32 22 34 41 41 41 49 59 59 61 60 61 60 62 63 56 53 50 53 53 52 50 48 49 48 48 48 51 50 48 47 48 50 50 50 49 52 54 56 52
3 6 6 8 5 7 8 17 25 10 21 45 55 56 48 49 53 59 61 60 66 70 68 68 66 58 51 53 56 55 49 52 49 50 51 51 51 52 53 49 44 49 50 53 53 56 58 58 58
9 10 5 4 8 3 9 14 15 11 31 53 61 67 68 65 63 57 61 67 62 64 69 78 77 70 66 58 52 52 54 57 56 57 56 52 50 51 53 52 48 45 44 49 49 50 48 56 59
9 14 12 5 4 8 3 11 11 9 14 12 50 61 73 77 75 72 68 68 72 68 55 69 81 83 75 66 65 62 59 58 58 56 51 50 51 53 51 51 50 49 47 49 47 46 47 43 54
11 12 15 10 7 5 4 5 14 6 9 20 29 56 60 58 50 58 73 83 75 66 58 56 74 84 79 73 69 69 71 67 64 57 52 52 52 48 47 48 48 49 50 51 50 48 49 49 52
5 11 12 9 6 7 13 13 9 8 13 12 15 20 26 26 33 40 47 54 67 64 54 34 41 60 67 67 68 71 71 63 56 50 51 47 43 44 47 48 50 51 54 54 53 52 50 51 54
6 11 5 5 3 12 2 9 12 15 18 8 17 39 27 21 36 23 17 25 35 51 43 36 36 38 48 58 58 60 58 57 58 60 60 57 53 49 47 48 49 50 51 57 55 54 51 51 56
26 18 10 14 9 7 3 13 11 12 22 27 37 43 46 46 22 9 6 9 12 19 27 32 34 36 35 35 39 45 48 47 48 50 54 55 55 54 52 53 54 56 56 56 53 51 51 53 57
12 20 9 9 5 6 8 12 16 12 15 25 34 40 31 20 11 8 14 18 17 18 19 20 20 20 21 25 29 33 37 39 40 40 40 40 42 45 48 51 54 54 54 53 50 51 53 54 55
16 15 7 4 6 7 6 6 8 8 15 20 28 42 50 37 18 15 19 22 23 20 17 16 14 12 12 13 17 20 23 26 28 31 34 37 40 41 43 43 43 41 41 42 45 48 49 51 55
9 12 9 8 10 9 3 8 8 14 12 15 17 43 51 45 30 18 21 24 25 23 19 14 10 8 9 10 12 15 18 20 22 25 28 32 35 39 35 40 42 44 46 49 52 55 55 59 60
24 15 26 16 8 4 5 7 4 15 12 18 28 39 46 44 38 29 27 26 24 20 15 11 8 5 5 5 7 10 12 14 17 20 22 24 26 28 29 32 35 37 38 39 41 43 44 46 47
Wind_Direction_850mb
343 342 284 162 74 67 235 241 174 172 154 173 136 171 159 118 163 206 149 157 162 172 168 165 165 164 162 162 161 155 158 158 155 155 154 151 152 153 142 141 134 137 115 116 117 119 124 128 131
341 336 159 139 101 133 262 237 196 198 146 120 100 89 72 146 161 152 155 163 164 171 168 166 166 165 163 163 164 161 167 167 166 167 167 166 161 153 139 133 121 108 123 114 115 120 126 133 134
337 339 196 109 112 179 216 209 175 170 152 143 107 107 136 180 185 177 170 162 165 173 170 168 170 168 165 166 169 171 174 175 172 171 171 171 166 163 168 165 163 136 146 130 122 124 129 130 130
334 270 59 104 201 242 207 187 167 147 176 163 141 103 143 179 192 168 169 169 170 177 175 174 174 173 172 174 177 182 181 183 189 192 201 200 188 184 198 190 153 150 160 154 139 136 126 126 124
328 25 59 89 257 262 240 186 161 153 165 154 158 187 170 176 165 173 167 172 179 179 180 181 181 179 180 182 183 187 193 197 195 198 204 216 218 192 204 195 171 172 163 109 143 146 144 145 155
347 73 59 228 255 277 201 166 169 159 181 155 132 147 156 172 180 179 180 174 180 184 183 186 185 186 187 189 189 192 193 194 193 195 199 204 214 206 195 188 190 176 192 180 163 165 167 171 172
126 92 199 193 262 304 162 181 177 177 173 205 164 135 206 190 192 194 183 179 182 191 192 190 192 191 193 195 196 197 197 196 196 195 196 198 210 218 212 199 199 204 194 189 181 176 186 189 193
213 98 158 222 207 244 338 181 204 185 192 199 170 182 213 188 183 187 184 187 189 188 195 199 199 200 200 199 202 204 203 205 204 206 201 203 206 210 209 205 211 214 218 209 206 205 207 219 222
188 74 209 211 165 236 342 130 156 208 162 176 198 208 211 185 180 184 186 193 196 197 199 203 205 205 207 206 206 208 209 211 212 213 216 214 214 217 212 214 219 226 233 242 237 227 230 235 239
145 157 218 206 188 207 306 357 276 183 160 219 200 205 187 185 185 189 194 196 201 203 203 206 211 211 212 211 212 214 214 213 216 221 223 226 225 224 226 229 230 228 233 238 244 249 245 246 248
176 202 196 219 202 220 264 278 316 210 209 208 205 197 183 183 189 198 203 209 207 207 210 212 214 214 218 219 218 219 221 223 223 225 228 230 233 232 232 235 239 238 238 239 244 250 259 262 260
166 231 180 185 191 180 221 273 289 226 226 228 228 208 182 186 194 202 208 211 210 211 216 218 221 219 222 225 226 226 228 227 228 231 234 236 238 238 240 242 246 247 242 247 258 263 267 268 271
214 213 208 225 208 213 206 241 248 261 242 252 224 199 190 194 200 207 215 216 214 215 216 220 223 222 223 227 228 230 231 232 234 236 238 240 243 245 248 249 248 248 247 254 264 271 272 272 272
235 197 179 210 213 216 183 225 196 245 250 247 225 204 200 203 205 207 213 217 218 219 218 217 221 227 228 231 235 234 233 232 236 239 241 242 244 245 247 249 248 253 256 263 270 275 272 272 271
169 177 330 227 211 227 183 252 220 238 220 203 215 209 207 209 209 214 217 220 222 223 223 220 222 227 233 239 240 243 248 247 246 241 239 242 244 245 248 250 252 255 260 265 268 269 272 274 277
129 58 177 247 169 226 158 257 247 249 233 234 229 220 216 215 218 223 222 225 227 228 230 227 226 229 234 239 240 243 247 251 256 260 249 244 243 245 247 251 254 258 262 266 268 270 273 275 277
338 206 198 305 205 148 176 249 263 211 208 235 243 233 228 226 226 226 227 230 231 233 233 232 229 230 233 236 239 241 244 250 255 259 264 261 258 252 250 252 254 256 260 263 267 269 272 276 280
189 203 231 208 222 190 206 257 252 189 187 225 260 249 237 231 227 228 230 233 234 234 236 233 233 231 230 237 239 241 243 247 251 254 259 265 266 267 260 261 262 259 257 259 263 268 273 277 282
161 183 198 224 255 167 226 235 254 250 255 269 266 256 252 243 233 232 233 234 235 234 234 234 232 236 234 234 234 237 241 248 252 255 259 265 266 265 269 268 266 264 263 267 272 272 273 277 280
96 157 228 286 350 173 284 261 262 219 251 253 259 266 256 252 245 236 233 232 235 237 236 236 236 234 237 243 248 249 253 257 262 265 264 271 269 267 267 270 278 268 265 266 268 270 273 275 278
203 184 190 215 350 345 337 288 250 240 236 252 252 254 259 256 251 244 234 233 233 238 240 240 240 239 237 238 242 246 250 255 257 261 265 269 269 268 264 267 271 279 278 270 272 273 275 274 277
212 182 181 243 100 232 26 281 279 253 251 234 255 253 254 255 250 247 239 235 236 241 247 242 242 240 240 241 241 244 253 262 266 274 280 276 277 276 271 270 270 273 277 278 280 282 282 275 273
216 152 182 171 171 38 233 332 275 275 268 256 254 259 263 264 260 257 247 241 238 240 246 251 240 240 240 243 246 250 253 259 265 272 273 275 277 274 271 272 271 272 275 278 278 279 277 273 271
147 84 55 53 85 278 188 176 253 215 210 236 270 274 286 276 280 274 254 246 241 236 235 250 242 238 241 245 247 251 252 258 267 267 272 277 278 272 272 272 270 270 273 274 276 277 273 276 276
164 138 44 18 1 235 210 193 273 269 264 254 276 288 284 283 311 271 235 233 234 227 232 234 235 237 238 240 242 244 249 253 256 260 264 266 269 269 271 272 272 271 272 276 274 270 271 278 276
187 182 157 182 195 228 158 229 251 248 288 291 282 290 285 293 306 300 189 190 195 206 216 225 227 226 226 231 237 242 247 250 254 260 262 262 264 266 266 268 270 272 272 272 272 265 267 272 272
173 214 163 111 67 64 213 290 294 315 33 24 19 21 7 17 49 86 117 127 137 159 173 187 201 214 225 235 242 246 250 254 256 256 258 260 262 262 264 266 268 269 268 268 269 266 264 267 271
186 154 187 44 153 234 264 269 248 51 46 37 22 11 14 23 40 84 113 140 154 164 171 180 192 202 215 229 238 244 246 249 252 255 258 260 262 263 265 267 268 267 264 262 259 257 261 264 267
156 187 187 150 165 172 159 254 249 99 99 60 2 24 29 36 51 75 101 112 120 126 132 145 170 201 223 231 235 243 249 253 258 262 263 263 264 263 262 260 261 261 262 263 265 267 267 267 268
219 196 205 206 228 224 131 275 175 118 92 58 38 41 44 52 63 80 91 101 109 113 120 131 148 184 200 227 245 249 254 258 260 263 265 266 266 267 264 261 259 259 259 260 261 262 265 268 270